User: anonymous   Login
Location: Carri�res
(48.9069°N, 2.1792°E)
Time: 04:44:54
(UTC+00:00)
Language:

Meteor 1-24 Rocket - Orbit

View from above orbital plane
View from above orbital plane
View from above satellite
View from above satellite

Ground track
Ground track

The orbit data is extracted from the following two-line orbital elements,

1 08800U 76032B   21101.90281974  .00000077  00000-0  35238-4 0  9998
2 08800  81.2478 300.4274 0094343 196.3460 163.4664 14.10159288314546
Epoch (UTC): 11 April 2021 21:40:03
Eccentricity: 0.0094343
inclination: 81.2478°
perigee height: 790 km
apogee height: 927 km
right ascension of ascending node: 300.4274°
argument of perigee: 196.3460°
revolutions per day: 14.10159288
mean anomaly at epoch: 163.4664°
orbit number at epoch: 31454

The dashed part of the orbit path shows where the satellite is in the earth's shadow,  

DLR